TimeEDT,TemperatureF,Dew PointF,Humidity,Sea Level PressureIn,VisibilityMPH,Wind Direction,Wind SpeedMPH,Gust SpeedMPH,PrecipitationIn,Events,Conditions,WindDirDegrees,DateUTC
12:56 AM,19.0,14.0,81,30.09,10.0,WSW,4.6,-,N/A,,Clear,240,2013-03-15 04:56:00
1:56 AM,19.9,14.0,78,30.09,10.0,WSW,4.6,-,N/A,,Partly Cloudy,240,2013-03-15 05:56:00
2:56 AM,18.0,12.9,81,30.06,10.0,SW,3.5,-,N/A,,Clear,220,2013-03-15 06:56:00
3:56 AM,21.0,15.1,78,30.04,10.0,WSW,6.9,-,N/A,,Overcast,240,2013-03-15 07:56:00
4:56 AM,21.0,15.1,78,29.99,10.0,WSW,6.9,-,N/A,,Partly Cloudy,240,2013-03-15 08:56:00
5:56 AM,23.0,17.1,78,29.99,10.0,West,9.2,-,N/A,,Partly Cloudy,260,2013-03-15 09:56:00
6:56 AM,25.0,19.0,78,29.98,10.0,WSW,11.5,-,N/A,,Overcast,250,2013-03-15 10:56:00
7:56 AM,26.1,19.0,75,29.97,10.0,WSW,11.5,-,N/A,,Overcast,240,2013-03-15 11:56:00
8:56 AM,27.0,19.0,72,29.95,10.0,WSW,15.0,21.9,N/A,,Overcast,240,2013-03-15 12:56:00
9:49 AM,28.4,19.4,69,29.86,10.0,WSW,13.8,21.9,N/A,,Overcast,240,2013-03-15 13:49:00
9:56 AM,28.9,21.0,72,29.93,10.0,WSW,13.8,21.9,N/A,,Overcast,240,2013-03-15 13:56:00
10:56 AM,30.0,21.0,69,29.92,10.0,West,18.4,28.8,N/A,,Overcast,260,2013-03-15 14:56:00
11:56 AM,33.1,24.1,70,29.89,10.0,WSW,18.4,27.6,N/A,,Overcast,240,2013-03-15 15:56:00
12:56 PM,34.0,25.0,70,29.86,10.0,SW,16.1,23.0,N/A,,Overcast,230,2013-03-15 16:56:00
1:56 PM,37.9,28.0,68,29.84,10.0,West,19.6,-,N/A,,Overcast,260,2013-03-15 17:56:00
2:30 PM,37.4,26.6,65,29.77,10.0,West,23.0,31.1,N/A,,Overcast,260,2013-03-15 18:30:00
2:56 PM,39.0,26.1,60,29.82,10.0,West,17.3,27.6,N/A,,Overcast,260,2013-03-15 18:56:00
3:56 PM,37.9,26.1,62,29.81,10.0,West,19.6,28.8,N/A,,Overcast,260,2013-03-15 19:56:00
4:56 PM,37.9,27.0,65,29.81,10.0,West,15.0,21.9,N/A,,Overcast,270,2013-03-15 20:56:00
5:14 PM,37.4,26.6,65,29.76,10.0,West,13.8,23.0,N/A,,Overcast,260,2013-03-15 21:14:00
5:56 PM,37.9,27.0,65,29.81,10.0,West,13.8,-,N/A,,Overcast,280,2013-03-15 21:56:00
6:56 PM,37.0,28.0,70,29.83,9.0,WNW,10.4,-,N/A,,Overcast,290,2013-03-15 22:56:00
7:47 PM,33.8,30.2,87,29.80,2.5,NW,8.1,-,0.00,Snow,Light Snow,310,2013-03-15 23:47:00
7:56 PM,33.1,30.0,89,29.86,1.5,WNW,8.1,-,0.00,Snow,Light Snow,300,2013-03-15 23:56:00
8:11 PM,33.8,30.2,87,29.80,1.2,WNW,6.9,-,0.00,Snow,Light Snow,300,2013-03-16 00:11:00
8:33 PM,32.0,30.2,93,29.81,2.5,NW,6.9,-,0.00,Snow,Light Snow,310,2013-03-16 00:33:00
8:43 PM,32.0,30.2,93,29.81,1.5,NW,6.9,-,0.00,Snow,Light Snow,320,2013-03-16 00:43:00
8:54 PM,32.0,30.2,93,29.81,3.0,NW,10.4,-,0.00,,Mostly Cloudy,310,2013-03-16 00:54:00
8:55 PM,32.0,30.0,92,29.87,3.0,NW,10.4,-,0.00,,Mostly Cloudy,310,2013-03-16 00:55:00
9:47 PM,30.2,28.4,93,29.82,2.0,NW,4.6,-,0.00,Snow,Light Snow,320,2013-03-16 01:47:00
9:56 PM,30.9,28.9,92,29.87,3.0,NW,5.8,-,0.00,,Overcast,320,2013-03-16 01:56:00
10:23 PM,30.2,28.4,93,29.82,7.0,NW,4.6,-,N/A,,Overcast,310,2013-03-16 02:23:00
10:40 PM,30.2,28.4,93,29.82,6.0,WNW,4.6,-,N/A,,Overcast,300,2013-03-16 02:40:00
10:56 PM,30.9,28.0,89,29.87,3.0,WNW,4.6,-,N/A,,Overcast,300,2013-03-16 02:56:00
11:14 PM,30.2,28.4,93,29.81,2.0,NW,3.5,-,N/A,,Overcast,310,2013-03-16 03:14:00
11:32 PM,30.2,28.4,93,29.81,3.0,NW,3.5,-,N/A,,Overcast,320,2013-03-16 03:32:00
11:41 PM,30.2,28.4,93,29.81,2.5,Calm,Calm,-,N/A,,Overcast,0,2013-03-16 03:41:00
11:56 PM,30.0,28.0,92,29.86,2.5,NNW,3.5,-,N/A,,Overcast,330,2013-03-16 03:56:00